Regional Weather Roundup
Issued by NWS Goodland, KS

Home | Current Version | Previous Version | Graphics & Text | Print | Product List | Glossary On
Versions: 1 2 3 4 5 6 7 8 9 10 11 12 13 14 15 16 17 18 19 20 21 22 23 24 25 26 27 28 29 30 31 32 33 34 35 36 37 38 39 40 41 42 43 44 45 46 47 48 49 50
000
ASUS43 KGLD 180259
RWRGLD

GOODLAND FORECAST AREA HOURLY WEATHER ROUNDUP
NATIONAL WEATHER SERVICE GOODLAND KS
800 PM MST SUN DEC 17 2017

...OFFICIAL OBSERVATIONS...

CITY           SKY/WX    TMP DP  RH WIND       PRES   REMARKS
GOODLAND KS    CLOUDY    23  19  85 SW7       29.99R
HILL CITY KS   CLOUDY    25  22  88 W3        30.04R
IMPERIAL NEB   CLEAR     25  22  88 SW7       29.98R
MCCOOK NEB     CLOUDY    27  24  89 SW8       30.01R
AKRON CO       CLOUDY    28  21  75 SW9       29.95R
BURLINGTON CO  CLOUDY    18  15  88 SW8       29.99R
LIMON CO       CLOUDY    17  15  92 N3        29.97R
$$

...UNOFFICIAL OBSERVATIONS...

CITY           SKY/WX    TMP DP  RH WIND       PRES   REMARKS
LENORA KS        N/A     31  32 100 SW5         N/A
NORTON KS      CLEAR     25  21  86 SW6       30.01
SHARON SPRINGS   N/A     26  22  84 CALM        N/A
TRENTON NEB      N/A     28  32 100 CALM        N/A
KIT CARSON CO    N/A     24  19  81 CALM        N/A
YUMA CO        FAIR      21  19  93 SW8       29.97R
$$




USA.gov is the U.S. government's official web portal to all federal, state and local government web resources and services.